"","ID","Lat","Lon","Year","Miss Tmax","Miss Tmin","Miss Prcp","Avg Temp","Avg Tmax","Avg Tmin","ToT Prcp","Max Tmax","Min Tmax","Max Tmin","Min Tmin","Warm Days","Warm Nights","Cold Days","Cold Nights","Max 1-day P","Max 5-day P","Wet Days"
"1885-12-31","USW00093988",34.175,-91.9347,1885,252,287,252,79,88.83,69.17,5.32,100,63,79,43,2.74,5.75,0,0,0.75,1.75,0
"1886-12-31","USW00093988",34.175,-91.9347,1886,187,189,187,76.22,87.66,64.78,14.22,99,68,78,40,2.19,6.58,0,0,5.02,7.12,9.28
"1887-12-31","USW00093988",34.175,-91.9347,1887,223,223,221,76.34,87.99,64.68,13.47,102,50,86,30,5.21,4.11,0.27,0.27,2.3,3.05,10.31
"1888-12-31","USW00093988",34.175,-91.9347,1888,213,215,213,76.53,87.61,65.46,26.42,100,68,79,41,3.01,7.95,0,0,3,4.11,18.51
"1889-12-31","USW00093988",34.175,-91.9347,1889,174,173,173,70.42,80.63,60.22,21.03,96,46,76,28,0,6.03,2.47,0.55,3.05,3.75,16.37
"1890-12-31","USW00093988",34.175,-91.9347,1890,125,125,121,69.6,79.92,59.28,26.97,98,40,78,20,0.82,8.22,1.92,1.92,2.1,2.57,14.41
"1891-12-31","USW00093988",34.175,-91.9347,1891,33,33,32,63.82,75.35,52.29,36.44,98,39,78,19,1.64,3.84,11.78,8.49,2.17,8.64,20.78
"1892-12-31","USW00093988",34.175,-91.9347,1892,10,10,0,62.68,73.06,52.3,72.61,98,20,77,10,0.82,8.49,13.7,13.42,4.02,9.72,48.92
"1893-12-31","USW00093988",34.175,-91.9347,1893,74,74,10,65.07,76.84,53.3,42.13,100,30,76,6,3.01,5.48,5.75,7.67,2,3.59,26.31
"1894-12-31","USW00093988",34.175,-91.9347,1894,147,147,139,72.18,84.48,59.89,21.76,105,44,78,26,3.01,3.29,0.27,1.92,2.65,3.3,10.05
"1895-12-31","USW00093988",34.175,-91.9347,1895,23,21,20,64.67,76.49,52.85,45.44,101,40,76,13,3.29,6.58,7.67,9.32,5.15,6.9,25.02
"1896-12-31","USW00093988",34.175,-91.9347,1896,3,20,0,65.96,78.15,53.77,38.9,108,36,78,13,14.25,9.86,9.32,9.32,3.1,3.31,22.49
"1897-12-31","USW00093988",34.175,-91.9347,1897,1,2,0,65.22,77.66,52.79,54.21,107,22,80,14,16.44,7.67,12.6,10.68,5.58,9.12,31.89
"1898-12-31","USW00093988",34.175,-91.9347,1898,2,2,0,64.44,75.75,53.14,52.33,100,34,76,16,4.66,7.4,11.51,12.33,3.6,6.67,35.2
"1899-12-31","USW00093988",34.175,-91.9347,1899,0,0,0,62.98,74.9,51.06,44.45,106,19,76,-5,7.4,3.56,16.71,15.07,3.05,4.35,26.62
"1900-12-31","USW00093988",34.175,-91.9347,1900,3,3,0,63.76,75.08,52.45,49.7,102,27,75,9,3.29,1.37,12.88,13.7,3.48,3.84,25.7
"1901-12-31","USW00093988",34.175,-91.9347,1901,2,1,0,62.66,75.8,49.52,37.21,108,18,75,5,14.79,2.19,12.88,15.07,2.48,4.15,19.06
"1902-12-31","USW00093988",34.175,-91.9347,1902,4,4,0,61.94,73.91,49.96,63.54,103,28,76,17,9.86,2.19,19.18,20,4.65,7.28,43.47
"1903-12-31","USW00093988",34.175,-91.9347,1903,31,20,11,61.18,73.68,48.67,49.18,99,32,72,2,1.64,0,15.89,21.1,3.55,4.55,25.02
"1904-12-31","USW00093988",34.175,-91.9347,1904,10,8,1,61.94,74.68,49.2,49.87,101,30,72,12,2.74,0,13.15,17.26,3.01,7,28.51
"1905-12-31","USW00093988",34.175,-91.9347,1905,10,7,0,61.37,72.09,50.64,82.89,98,26,75,2,0.27,1.37,18.63,17.81,6.8,9.43,54.47
"1906-12-31","USW00093988",34.175,-91.9347,1906,11,11,1,62.08,73.59,50.57,63,98,28,74,17,0.55,0.55,13.15,14.25,5.65,10.36,41.79
"1907-12-31","USW00093988",34.175,-91.9347,1907,15,15,4,63.98,76.39,51.57,55.47,104,35,77,19,6.85,3.29,6.85,9.86,4.75,6.7,34.56
"1908-12-31","USW00093988",34.175,-91.9347,1908,7,7,0,63.98,76.76,51.19,52.59,101,35,74,17,2.47,1.1,9.04,12.88,3.15,5.12,24.09
"1909-12-31","USW00093988",34.175,-91.9347,1909,8,8,0,64.11,77.23,50.98,50.37,107,25,76,10,10.96,4.93,10.14,12.88,3.46,3.65,29.27
"1910-12-31","USW00093988",34.175,-91.9347,1910,17,17,9,63.75,75.75,51.76,54.46,98,32,76,3,0.55,3.01,11.23,14.52,3.9,4.6,36.92
"1911-12-31","USW00093988",34.175,-91.9347,1911,16,13,0,65.41,76.29,54.53,54.54,102,22,77,8,4.93,5.48,9.86,7.4,3.4,5.75,29.02
"1912-12-31","USW00093988",34.175,-91.9347,1912,10,10,0,61.19,72.82,49.56,47.95,99,29,78,4,2.47,1.92,17.81,19.73,3,4.46,26.07
"1913-12-31","USW00093988",34.175,-91.9347,1913,18,18,10,63.27,75.14,51.41,55.03,103,33,77,14,6.85,2.47,10.41,14.25,3.4,8.22,32.3
"1914-12-31","USW00093988",34.175,-91.9347,1914,5,5,0,62.74,74.04,51.43,46.31,104,33,79,12,6.3,4.66,16.99,16.44,2.8,4.05,22.3
"1915-12-31","USW00093988",34.175,-91.9347,1915,25,25,22,62.56,73.97,51.14,42.7,101,27,76,18,2.47,4.38,14.79,16.99,2.37,4.28,25.61
"1916-12-31","USW00093988",34.175,-91.9347,1916,14,8,0,63.51,75.86,51.16,49.03,100,30,77,14,2.74,6.58,12.05,13.7,3.62,7.69,27.11
"1917-12-31","USW00093988",34.175,-91.9347,1917,10,10,1,60.98,73.41,48.55,38.69,102,19,77,9,2.19,2.19,14.52,16.99,2.4,4.31,14.17
"1918-12-31","USW00093988",34.175,-91.9347,1918,12,10,6,64.86,78.59,51.12,48.22,109,22,82,-6,15.89,5.75,10.96,12.6,4.05,6.4,30.15
"1919-12-31","USW00093988",34.175,-91.9347,1919,4,4,1,63.92,76.11,51.73,63.5,105,28,75,11,10.14,1.92,10.68,12.6,3.95,4.85,38.26
"1920-12-31","USW00093988",34.175,-91.9347,1920,10,10,7,63.11,73.78,52.44,46.92,100,34,76,19,0.82,3.01,16.44,11.23,3.04,4.13,22.15
"1921-12-31","USW00093988",34.175,-91.9347,1921,11,10,7,66.87,78.56,55.18,46.64,104,39,78,23,12.6,7.12,6.03,4.66,3.3,6.13,27.41
"1922-12-31","USW00093988",34.175,-91.9347,1922,13,14,10,65.18,76.67,53.7,44.54,103,34,82,21,6.03,6.3,12.6,9.04,3.06,3.69,23.48
"1923-12-31","USW00093988",34.175,-91.9347,1923,12,12,12,64.27,75.79,52.75,63.02,102,28,77,18,3.56,5.48,6.58,8.77,3.4,5.53,34.19
"1924-12-31","USW00093988",34.175,-91.9347,1924,7,8,7,63.83,76.42,51.23,42.09,110,30,79,9,13.97,10.41,14.79,13.15,3.7,5.5,20.53
"1925-12-31","USW00093988",34.175,-91.9347,1925,2,3,2,66,78.16,53.84,38.97,110,31,86,10,17.81,10.68,11.23,10.41,2.45,6.61,18.18
"1926-12-31","USW00093988",34.175,-91.9347,1926,7,6,6,64.76,76.42,53.11,46.68,108,35,78,17,11.51,8.77,9.86,9.59,3.7,6.75,26.26
"1927-12-31","USW00093988",34.175,-91.9347,1927,2,1,2,66.63,78.11,55.16,61.7,105,33,78,13,6.03,8.22,10.14,8.22,4.69,6.95,36.24
"1928-12-31","USW00093988",34.175,-91.9347,1928,1,1,1,65.04,77.16,52.93,52.47,104,24,78,9,9.32,11.78,8.77,10.14,5.31,5.71,31.04
"1929-12-31","USW00093988",34.175,-91.9347,1929,0,0,0,64.35,75.86,52.84,37.07,105,26,79,14,8.22,6.85,14.25,15.07,2.66,2.66,13.31
"1930-12-31","USW00093988",34.175,-91.9347,1930,1,1,0,64.19,75.21,53.18,54.94,109,21,82,-2,10.96,11.51,11.78,12.6,3.65,8.23,38.17
"1931-12-31","USW00093988",34.175,-91.9347,1931,0,0,0,64.62,74.95,54.28,51.15,100,34,78,18,1.64,10.68,9.86,5.48,2.12,4.39,27.15
"1932-12-31","USW00093988",34.175,-91.9347,1932,1,4,1,64.71,75.73,53.69,56.4,103,25,79,8,7.12,12.88,11.51,12.05,2.02,4,29.47
"1933-12-31","USW00093988",34.175,-91.9347,1933,2,2,0,66.1,76.71,55.48,51.47,103,24,79,8,2.74,10.14,6.85,5.21,2.28,8.08,31.39
"1934-12-31","USW00093988",34.175,-91.9347,1934,0,0,0,65.53,76.55,54.52,44.99,107,31,81,16,9.86,14.25,11.78,9.04,5,6.21,24.74
"1935-12-31","USW00093988",34.175,-91.9347,1935,0,0,0,64.37,74.59,54.15,47.14,106,30,78,14,4.38,10.14,12.33,10.14,3.78,7.61,31.29
"1936-12-31","USW00093988",34.175,-91.9347,1936,0,0,0,64.39,75.42,53.36,40.18,108,28,80,9,8.77,14.79,14.25,11.78,4.18,7.85,24.11
"1937-12-31","USW00093988",34.175,-91.9347,1937,0,1,0,63.57,73.38,53.76,54.28,104,34,79,16,2.47,11.78,15.89,10.96,3.84,8.32,29.45
"1938-12-31","USW00093988",34.175,-91.9347,1938,0,0,0,66.1,77.08,55.12,51.56,105,35,77,17,5.75,10.96,10.68,9.86,5.09,6.94,32.62
"1939-12-31","USW00093988",34.175,-91.9347,1939,0,1,0,65.3,75.99,54.62,66.68,104,39,79,21,5.48,12.88,9.59,6.58,5.32,5.47,51.35
"1940-12-31","USW00093988",34.175,-91.9347,1940,0,1,0,61.91,72.21,51.6,46.68,97,25,78,1,0,5.48,15.62,13.15,2.07,3.75,20.16
"1941-12-31","USW00093988",34.175,-91.9347,1941,1,0,0,64.33,74.32,54.34,44.66,99,35,77,21,0.27,9.86,13.42,10.14,4.05,5.09,22.11
"1942-12-31","USW00093988",34.175,-91.9347,1942,1,2,0,64.5,75.77,53.22,50.42,105,25,78,7,5.75,9.04,10.96,10.96,4.69,7.54,30.56
"1943-12-31","USW00093988",34.175,-91.9347,1943,0,0,0,65.48,77.32,53.64,34.74,112,29,81,9,16.16,16.44,11.78,12.05,3.02,5.86,15.58
"1944-12-31","USW00093988",34.175,-91.9347,1944,1,2,1,65.25,76.13,54.36,54.85,106,32,80,15,11.51,11.78,12.88,8.22,2.43,4.66,33.19
"1945-12-31","USW00093988",34.175,-91.9347,1945,7,6,0,64.3,74.52,54.07,74.35,101,36,78,16,2.47,8.49,14.79,9.86,6.73,10.2,50.72
"1946-12-31","USW00093988",34.175,-91.9347,1946,0,0,0,65.75,76.53,54.96,54.5,102,29,79,19,4.66,9.32,7.4,6.3,4.08,4.98,33.14
"1947-12-31","USW00093988",34.175,-91.9347,1947,4,2,2,63.78,74.97,52.59,45.87,108,31,79,16,11.51,10.96,16.99,12.6,3.73,5.52,28.28
"1948-12-31","USW00093988",34.175,-91.9347,1948,0,1,0,62.77,73.94,51.6,55.08,100,21,77,4,3.01,6.85,19.18,14.52,3.86,4.89,30.72
"1949-12-31","USW00093988",34.175,-91.9347,1949,0,0,0,63.49,74.17,52.81,58.59,98,22,78,8,0.27,3.84,10.68,8.22,3.52,5.95,31.48
"1950-12-31","USW00093988",34.175,-91.9347,1950,0,0,0,62.28,72.81,51.74,57.84,97,31,75,11,0,0.82,13.7,12.88,4.57,5.81,33.4
"1951-12-31","USW00093988",34.175,-91.9347,1951,0,0,0,62.58,73.85,51.31,49.82,106,20,78,-1,3.84,4.93,14.25,14.25,3.45,5.87,23.85
"1952-12-31","USW00093988",34.175,-91.9347,1952,0,0,0,62.74,74.56,50.91,40.35,104,35,77,22,9.04,4.93,14.79,12.6,3.89,4.4,23.81
"1953-12-31","USW00093988",34.175,-91.9347,1953,0,0,0,63.69,75.96,51.42,48.7,102,30,77,15,9.04,5.75,10.14,9.32,3.69,6.56,27.48
"1954-12-31","USW00093988",34.175,-91.9347,1954,0,0,0,64.52,77,52.03,34.9,107,30,79,16,15.07,7.4,10.41,13.7,3.54,4.02,18.03
"1955-12-31","USW00093988",34.175,-91.9347,1955,1,1,1,62.98,74.29,51.67,46.5,99,33,76,15,1.64,3.29,17.26,15.89,4.48,5.29,27.43
"1956-12-31","USW00093988",34.175,-91.9347,1956,0,0,0,63.33,75.21,51.45,43.48,103,33,75,20,4.93,1.64,13.42,11.23,2.67,4.55,22.4
"1957-12-31","USW00093988",34.175,-91.9347,1957,5,5,4,63.08,73.01,53.15,75.31,98,31,76,13,0.82,3.84,13.15,6.3,3.53,7.29,47.45
"1958-12-31","USW00093988",34.175,-91.9347,1958,0,0,0,60.88,71.08,50.68,60.68,97,26,77,5,0,4.38,19.45,16.71,5.15,8.32,42.44
"1959-12-31","USW00093988",34.175,-91.9347,1959,0,0,0,62.19,73.43,50.95,47.46,99,25,74,11,0.55,1.64,14.52,13.7,2.52,3.97,31.4
"1960-12-31","USW00093988",34.175,-91.9347,1960,0,0,0,61.5,72.29,50.7,43.93,103,29,77,18,4.93,4.66,24.38,18.63,2.58,4.26,23.18
"1961-12-31","USW00093988",34.175,-91.9347,1961,0,0,0,62.02,72.79,51.24,59.61,98,28,74,16,0.27,1.37,15.07,11.51,5.24,6.29,33.69
"1962-12-31","USW00093988",34.175,-91.9347,1962,0,0,0,63.3,73.94,52.67,35.9,102,13,78,-2,5.21,6.58,14.25,10.41,3.68,4.53,16.65
"1963-12-31","USW00093988",34.175,-91.9347,1963,0,0,0,63.02,74.26,51.78,41.61,101,23,77,-2,3.29,6.3,16.16,17.53,2.85,4.83,23.47
"1964-12-31","USW00093988",34.175,-91.9347,1964,0,0,0,63.66,74.83,52.49,41.29,107,26,80,15,4.66,8.22,13.97,12.6,3.2,5.41,25.77
"1965-12-31","USW00093988",34.175,-91.9347,1965,0,0,0,64.14,74.67,53.61,48.94,101,32,77,14,2.74,4.38,14.25,11.23,3.73,5.84,34.64
"1966-12-31","USW00093988",34.175,-91.9347,1966,0,0,0,62.08,72.13,52.04,53.68,104,19,78,-2,3.84,6.58,16.71,13.97,4.38,8.47,35.21
"1967-12-31","USW00093988",34.175,-91.9347,1967,0,0,0,62.54,72.62,52.45,45.13,97,24,77,15,0,4.66,14.79,12.88,4.04,4.38,25.47
"1968-12-31","USW00093988",34.175,-91.9347,1968,0,0,0,61.34,71.03,51.66,55.9,97,23,75,13,0,4.66,19.45,15.62,3.18,6.2,33.17
"1969-12-31","USW00093988",34.175,-91.9347,1969,0,0,0,62.08,72.13,52.02,47.13,105,27,78,18,4.93,8.77,19.45,10.96,4.29,6.97,27.42
"1970-12-31","USW00093988",34.175,-91.9347,1970,0,0,0,62.58,72.76,52.4,39.26,103,24,77,8,3.01,6.58,18.63,14.25,2.03,4.29,17.95
"1971-12-31","USW00093988",34.175,-91.9347,1971,0,0,0,63.36,73.97,52.74,39.13,103,27,78,14,3.01,3.56,14.52,9.86,3.33,5.39,17.76
"1972-12-31","USW00093988",34.175,-91.9347,1972,0,0,0,63,73.28,52.72,48.48,101,27,77,14,3.29,2.74,18.36,10.14,3.23,5.65,29.5
"1973-12-31","USW00093988",34.175,-91.9347,1973,0,0,0,63.59,73.12,54.06,62.17,98,28,77,19,0.55,5.48,13.97,9.86,3,5.03,33.57
"1974-12-31","USW00093988",34.175,-91.9347,1974,0,4,0,64.38,74.84,53.92,65.67,101,26,78,17,1.64,3.01,11.51,7.95,4.26,7.03,40.75
"1975-12-31","USW00093988",34.175,-91.9347,1975,0,1,0,64.1,75.2,53,46.58,98,34,76,14,0.82,5.48,12.6,11.23,3.69,6.28,23.21
"1976-12-31","USW00093988",34.175,-91.9347,1976,0,0,0,61.72,73.43,50,41.28,99,27,74,9,0.82,0.27,10.41,14.25,3.92,4.55,22.21
"1977-12-31","USW00093988",34.175,-91.9347,1977,0,2,0,62.92,74.56,51.29,38.55,102,21,76,3,5.21,6.03,15.89,17.26,2,2.6,18.72
"1978-12-31","USW00093988",34.175,-91.9347,1978,0,2,0,61.67,72.96,50.39,54.92,102,28,77,15,7.67,6.03,21.1,20.55,3.38,5.41,36.83
"1979-12-31","USW00093988",34.175,-91.9347,1979,1,3,1,59.95,70.9,49.01,72.53,96,24,75,8,0,2.19,18.63,20.27,4.07,6.28,49.97
"1980-12-31","USW00093988",34.175,-91.9347,1980,1,2,0,62.11,73.72,50.49,47.73,108,24,79,12,15.89,12.33,19.45,16.99,2.8,6.93,34.57
"1981-12-31","USW00093988",34.175,-91.9347,1981,0,4,0,62.19,73.31,51.06,42.54,98,26,78,9,1.37,4.93,14.79,12.6,3.03,4.46,20.36
"1982-12-31","USW00093988",34.175,-91.9347,1982,1,21,0,61.85,72.72,50.98,66.17,98,18,75,1,0.55,1.64,15.07,15.34,4.38,9.27,39.72
"1983-12-31","USW00093988",34.175,-91.9347,1983,3,15,0,60.21,71.44,48.98,59.53,102,14,75,3,4.66,3.01,21.37,16.44,4.33,6.14,40.59
"1984-12-31","USW00093988",34.175,-91.9347,1984,5,42,0,61.81,73.43,50.19,69.21,100,23,80,4,1.37,5.21,12.05,15.62,3.9,7.33,41.44
"1985-12-31","USW00093988",34.175,-91.9347,1985,5,57,0,63.17,73.56,52.79,53.86,101,15,80,3,2.47,5.75,15.07,13.7,3.32,3.68,28.79
"1986-12-31","USW00093988",34.175,-91.9347,1986,243,255,243,68.36,79.72,57.01,16.72,97,44,74,23,0,0.82,1.1,0.82,1.71,3.43,7.51
"1987-12-31","USW00093988",34.175,-91.9347,1987,275,281,275,55.16,64.61,45.71,14.05,95,33,73,24,0,0,7.95,5.21,2.03,3.56,8.03
"1988-12-31","USW00093988",34.175,-91.9347,1988,117,117,117,65.07,75.18,54.96,30.52,101,19,79,9,1.64,11.23,10.41,7.95,3.58,3.99,19.4
"1989-12-31","USW00093988",34.175,-91.9347,1989,3,3,1,62.35,71.89,52.81,60.59,97,15,78,2,0,8.77,17.53,12.05,2.95,5.18,36.59
"1990-12-31","USW00093988",34.175,-91.9347,1990,0,1,0,65.19,75.15,55.23,69.12,104,27,80,15,4.93,13.15,7.95,4.38,2.53,5.55,46.19
"1991-12-31","USW00093988",34.175,-91.9347,1991,2,2,0,64.46,73.87,55.04,63.25,101,30,78,22,1.37,6.3,16.71,7.4,5.58,8.91,38.99
"1992-12-31","USW00093988",34.175,-91.9347,1992,0,0,0,63.03,72.8,53.26,45.53,96,38,78,18,0,4.93,13.97,6.3,2.78,4.25,20.58
"1993-12-31","USW00093988",34.175,-91.9347,1993,0,0,0,62.41,72.26,52.56,49.75,102,31,78,20,4.38,15.07,18.36,10.96,4.38,6.29,30.79
"1994-12-31","USW00093988",34.175,-91.9347,1994,0,0,0,63.47,73.24,53.7,52.27,96,25,79,15,0,4.93,13.7,9.04,2.97,5.35,28.72
"1995-12-31","USW00093988",34.175,-91.9347,1995,0,0,0,63.86,73.97,53.75,40.81,102,31,80,17,3.56,14.52,15.89,10.96,2.74,3.3,22.6
"1996-12-31","USW00093988",34.175,-91.9347,1996,1,1,0,62.8,72.42,53.18,49.51,100,22,80,9,0.55,7.95,15.07,12.33,3.01,5.08,33.69
"1997-12-31","USW00093988",34.175,-91.9347,1997,0,0,0,62.88,72.24,53.52,57.19,100,26,79,15,1.64,11.23,16.16,6.58,3.48,5.99,31.6
"1998-12-31","USW00093988",34.175,-91.9347,1998,0,0,0,65.99,75.33,56.65,44.09,103,27,83,20,6.3,19.73,13.7,3.84,2.45,3.63,23.13
"1999-12-31","USW00093988",34.175,-91.9347,1999,0,0,0,64.97,75.52,54.42,40.64,101,29,80,16,3.56,10.41,10.96,5.75,2.27,4.13,22.42
"2000-12-31","USW00093988",34.175,-91.9347,2000,5,5,3,63.58,73.65,53.5,40.21,106,25,80,17,8.22,12.6,16.71,13.7,2.38,4.1,17.73
"2001-12-31","USW00093988",34.175,-91.9347,2001,2,2,0,63.05,73.25,52.84,57.58,102,25,78,9,0.82,6.3,14.79,8.77,3.54,8.96,36.51
"2002-12-31","USW00093988",34.175,-91.9347,2002,3,3,0,62.8,72.64,52.95,51.91,97,34,76,19,0,5.48,15.89,9.04,3.17,4.47,26.86
"2003-12-31","USW00093988",34.175,-91.9347,2003,3,3,1,62.21,72.45,51.97,39.23,99,27,78,15,1.64,3.56,16.71,13.97,2.71,4.71,17.78
"2004-12-31","USW00093988",34.175,-91.9347,2004,3,3,2,63.3,72.75,53.84,55.37,96,26,78,16,0,3.56,13.97,9.86,3.44,3.85,28.47
"2005-12-31","USW00093988",34.175,-91.9347,2005,3,3,1,64.17,74.66,53.68,38.62,100,32,77,19,2.74,5.75,12.88,7.95,3.17,3.63,22.19
"2006-12-31","USW00093988",34.175,-91.9347,2006,0,0,0,64.16,75.1,53.23,43.06,102,25,79,18,4.66,7.12,10.96,8.77,2.86,3.36,22.48
"2007-12-31","USW00093988",34.175,-91.9347,2007,1,1,3,64.06,74.28,53.84,45.51,104,31,78,21,3.56,4.38,16.16,11.78,3.59,4.71,28.34
"2008-12-31","USW00093988",34.175,-91.9347,2008,0,0,0,62.34,72.84,51.85,47.31,102,30,78,18,3.01,5.75,13.97,13.15,4.56,5.12,25.96
"2009-12-31","USW00093988",34.175,-91.9347,2009,1,1,1,62.34,71.79,52.89,68.44,100,31,77,21,1.1,5.75,15.89,11.51,4,6.93,43.35
"2010-12-31","USW00093988",34.175,-91.9347,2010,1,1,1,63.82,74.84,52.8,28.43,103,26,81,13,7.67,16.99,17.53,15.62,1.78,2.3,10.99
"2011-12-31","USW00093988",34.175,-91.9347,2011,2,2,0,64.04,75.09,52.99,45.86,110,27,84,8,9.86,11.51,15.34,10.14,3.9,5.93,30.31
"2012-12-31","USW00093988",34.175,-91.9347,2012,2,2,1,65.24,76.02,54.46,45.69,105,33,80,22,5.48,8.49,10.68,8.77,4.61,8.9,26.15
"2013-12-31","USW00093988",34.175,-91.9347,2013,1,1,0,62.01,72.09,51.93,52.66,101,26,80,21,3.01,6.58,17.26,11.78,4.94,5.01,33.14
"2014-12-31","USW00093988",34.175,-91.9347,2014,0,0,0,60.68,70.77,50.59,41.41,96,25,77,10,0,3.29,17.81,16.71,1.95,3.81,19.84
"2015-12-31","USW00093988",34.175,-91.9347,2015,0,0,0,63.4,73.42,53.38,51.31,100,28,78,11,2.47,9.59,15.62,11.78,2.5,3.86,29.29
"2016-12-31","USW00093988",34.175,-91.9347,2016,0,0,0,64.58,74.76,54.39,54.38,99,31,78,18,0.82,11.78,11.78,10.68,4.63,8.53,33.95
"2017-12-31","USW00093988",34.175,-91.9347,2017,0,0,0,64.32,74.64,53.99,50.76,96,27,76,14,0,4.66,11.78,9.04,2.82,6.09,29.16
"2018-12-31","USW00093988",34.175,-91.9347,2018,0,0,0,63.22,72.94,53.49,76.83,98.1,21.2,77,5.2,0.55,6.58,14.52,12.05,4.61,7.59,52.87
"2019-12-31","USW00093988",34.175,-91.9347,2019,0,0,0,63.19,73.17,53.21,63.98,99,31.1,77,19.2,1.1,4.93,13.7,10.14,4.09,7.06,41.36
"2020-12-31","USW00093988",34.175,-91.9347,2020,0,0,0,62.97,72.59,53.35,63.04,95,35.1,77,24.3,0,4.93,13.15,6.3,3.44,4.43,35.41
"2021-12-31","USW00093988",34.175,-91.9347,2021,0,0,0,64.59,74.94,54.24,44.94,100.9,17.2,79,0.1,4.11,12.6,11.78,7.67,2.45,6.23,20.78
